,,PA_Meas_PMT16A,,PR_Meas_QMR101_102,,RH_Meas_QMH101,,SR_Meas_QMS101,,TA_Meas_QMH101,,GenWind,,GenWind,
time,status,PA,status,PR,status,RH,status,SR,status,TA,status,DirAvg,status,SpdAvg,
2015-06-17, 07:12:04,VALID,916.2,VALID,0,VALID,98.9748,VALID,119.475,VALID,19.7223,INVALID,360,INVALID,0,
2015-06-17, 07:13:04,VALID,916.213,VALID,0,VALID,98.9901,VALID,126.458,VALID,19.7808,VALID,139,VALID,0,
2015-06-17, 07:14:04,VALID,916.22,VALID,0,VALID,98.9977,VALID,126.566,VALID,19.8408,VALID,131,VALID,0,
2015-06-17, 07:15:04,VALID,916.238,VALID,0,VALID,98.9672,VALID,126.351,VALID,19.8993,VALID,116,VALID,0,
2015-06-17, 07:16:04,VALID,916.244,VALID,0,VALID,98.9596,VALID,120.871,VALID,19.9578,VALID,116,VALID,0,
2015-06-17, 07:17:04,VALID,916.256,VALID,0,VALID,98.891,VALID,113.995,VALID,20.0553,VALID,100,VALID,0,
2015-06-17, 07:18:04,VALID,916.268,VALID,0,VALID,98.8376,VALID,108.408,VALID,20.1334,VALID,102,VALID,0,
2015-06-17, 07:19:04,VALID,916.258,VALID,0,VALID,98.7614,VALID,112.706,VALID,20.1919,VALID,98,VALID,0,
2015-06-17, 07:20:04,VALID,916.286,VALID,0,VALID,98.6165,VALID,111.631,VALID,20.2699,VALID,98,VALID,0,
2015-06-17, 07:21:04,VALID,916.303,VALID,0,VALID,98.3649,VALID,112.598,VALID,20.2894,VALID,66,VALID,0,
2015-06-17, 07:22:04,VALID,916.344,VALID,0,VALID,98.0981,VALID,111.524,VALID,20.3659,VALID,82,VALID,0,
2015-06-17, 07:23:04,VALID,916.379,VALID,0,VALID,97.6407,VALID,111.739,VALID,20.3854,VALID,82,VALID,0,
2015-06-17, 07:24:04,VALID,916.388,VALID,0,VALID,97.29,VALID,141.5,VALID,20.4829,VALID,76,VALID,0,
2015-06-17, 07:25:04,VALID,916.399,VALID,0,VALID,96.9927,VALID,132.045,VALID,20.5999,VALID,76,VALID,0,
2015-06-17, 07:26:04,VALID,916.458,VALID,0,VALID,96.4743,VALID,138.599,VALID,20.678,VALID,102,VALID,0,
2015-06-17, 07:27:04,VALID,916.458,VALID,0,VALID,96.0245,VALID,121.409,VALID,20.7365,VALID,101,VALID,0,
2015-06-17, 07:28:04,VALID,916.478,VALID,0,VALID,95.5748,VALID,130.648,VALID,20.834,VALID,100,VALID,0,
2015-06-17, 07:29:04,VALID,916.518,VALID,0,VALID,94.8963,VALID,151.385,VALID,20.873,VALID,101,VALID,0,
2015-06-17, 07:30:04,VALID,916.514,VALID,0,VALID,94.6828,VALID,154.823,VALID,20.9706,VALID,91,VALID,0,
2015-06-17, 07:31:04,VALID,916.55,VALID,0,VALID,94.4236,VALID,135.161,VALID,21.0096,VALID,69,VALID,0,
2015-06-17, 07:32:04,VALID,916.49,VALID,0,VALID,94.6905,VALID,151.277,VALID,21.0486,VALID,65,VALID,0,
2015-06-17, 07:33:04,VALID,916.537,VALID,0,VALID,94.3398,VALID,160.517,VALID,21.0681,VALID,66,VALID,0,
2015-06-17, 07:34:04,VALID,916.524,VALID,0,VALID,92.3348,VALID,163.848,VALID,21.0876,VALID,65,VALID,0,
2015-06-17, 07:35:04,VALID,916.534,VALID,0,VALID,91.9003,VALID,155.252,VALID,21.1852,VALID,65,VALID,0,
2015-06-17, 07:36:04,VALID,916.566,VALID,0,VALID,90.5281,VALID,159.872,VALID,21.2242,VALID,65,VALID,0,
2015-06-17, 07:37:04,VALID,916.585,VALID,0,VALID,90.5891,VALID,172.55,VALID,21.2031,VALID,65,VALID,0,
2015-06-17, 07:38:04,VALID,916.595,VALID,0,VALID,91.3438,VALID,182.005,VALID,21.2827,VALID,65,VALID,0,
2015-06-17, 07:39:04,VALID,916.621,VALID,0,VALID,91.6945,VALID,185.873,VALID,21.3998,VALID,65,VALID,0,
2015-06-17, 07:40:04,VALID,916.608,VALID,0,VALID,91.3361,VALID,179.427,VALID,21.5347,VALID,65,VALID,0,
2015-06-17, 07:41:04,VALID,916.598,VALID,0,VALID,90.0935,VALID,186.625,VALID,21.6713,VALID,65,VALID,0,
2015-06-17, 07:42:04,VALID,916.567,VALID,0,VALID,87.4406,VALID,187.915,VALID,21.7493,VALID,65,VALID,0,
2015-06-17, 07:43:04,VALID,916.584,VALID,0,VALID,87.6617,VALID,187.377,VALID,21.7883,VALID,65,VALID,0,
2015-06-17, 07:44:04,VALID,916.589,VALID,0,VALID,86.5639,VALID,190.171,VALID,21.8274,VALID,80,VALID,0,
2015-06-17, 07:45:04,VALID,916.598,VALID,0,VALID,87.5702,VALID,184.047,VALID,21.8079,VALID,82,VALID,0,
2015-06-17, 07:46:04,VALID,916.579,VALID,0,VALID,85.8092,VALID,192.749,VALID,21.7493,VALID,82,VALID,0,
2015-06-17, 07:47:04,VALID,916.601,VALID,0,VALID,85.6033,VALID,189.741,VALID,21.7298,VALID,82,VALID,0,
2015-06-17, 07:48:04,VALID,916.583,VALID,0,VALID,87.3643,VALID,181.146,VALID,21.7493,VALID,65,VALID,0,
2015-06-17, 07:49:04,VALID,916.532,VALID,0,VALID,87.4863,VALID,168.683,VALID,21.8274,VALID,73,VALID,0,
2015-06-17, 07:50:04,VALID,916.554,VALID,0,VALID,87.1204,VALID,184.154,VALID,21.8274,VALID,55,VALID,0,
2015-06-17, 07:51:04,VALID,916.553,VALID,0,VALID,86.8917,VALID,198.229,VALID,21.8469,VALID,62,VALID,0,
2015-06-17, 07:52:04,VALID,916.549,VALID,0,VALID,85.9388,VALID,180.394,VALID,21.8079,VALID,71,VALID,0,
2015-06-17, 07:53:04,VALID,916.54,VALID,0,VALID,86.6325,VALID,180.609,VALID,21.8469,VALID,59,VALID,0,
2015-06-17, 07:54:04,VALID,916.522,VALID,0,VALID,86.663,VALID,194.791,VALID,21.9444,VALID,55,VALID,0,
2015-06-17, 07:55:04,VALID,916.513,VALID,0,VALID,85.1764,VALID,196.51,VALID,21.9835,VALID,55,VALID,0,
2015-06-17, 07:56:04,VALID,916.518,VALID,0,VALID,84.5513,VALID,216.386,VALID,22.0794,VALID,55,VALID,0,
2015-06-17, 07:57:04,VALID,916.538,VALID,0,VALID,83.7127,VALID,218.32,VALID,22.1379,VALID,79,VALID,0,
2015-06-17, 07:58:04,VALID,916.544,VALID,0,VALID,85.3289,VALID,212.733,VALID,22.1769,VALID,79,VALID,0,
2015-06-17, 07:59:04,VALID,916.545,VALID,0,VALID,83.4459,VALID,218.965,VALID,22.2159,VALID,70,VALID,0,
2015-06-17, 08:00:04,VALID,916.565,VALID,0,VALID,84.4141,VALID,190.493,VALID,22.333,VALID,43,VALID,0,
2015-06-17, 08:01:04,VALID,916.539,VALID,0,VALID,82.31,VALID,191.89,VALID,22.473,VALID,42,VALID,0,
2015-06-17, 08:02:04,VALID,916.515,VALID,0,VALID,81.1741,VALID,156.112,VALID,22.4696,VALID,42,VALID,0,
2015-06-17, 08:03:04,VALID,916.515,VALID,0,VALID,82.0584,VALID,129.789,VALID,22.5103,VALID,42,VALID,0,
2015-06-17, 08:04:04,VALID,916.533,VALID,0,VALID,83.0724,VALID,107.549,VALID,22.4908,VALID,42,VALID,0,
2015-06-17, 08:05:04,VALID,916.554,VALID,0,VALID,83.5755,VALID,93.6887,VALID,22.4306,VALID,42,VALID,0,
2015-06-17, 08:06:04,VALID,916.576,VALID,0,VALID,82.9428,VALID,102.284,VALID,22.3933,VALID,42,VALID,0,
2015-06-17, 08:07:04,VALID,916.577,VALID,0,VALID,83.4078,VALID,137.095,VALID,22.3152,VALID,42,VALID,0,
2015-06-17, 08:08:04,VALID,916.558,VALID,0,VALID,83.1791,VALID,172.443,VALID,22.2567,VALID,42,VALID,0,
2015-06-17, 08:09:04,VALID,916.55,VALID,0,VALID,83.202,VALID,183.08,VALID,22.2371,VALID,43,VALID,0,
2015-06-17, 08:10:04,VALID,916.524,VALID,0,VALID,83.9262,VALID,209.94,VALID,22.1981,VALID,47,VALID,0,
2015-06-17, 08:11:04,VALID,916.508,VALID,0,VALID,84.6352,VALID,224.122,VALID,22.2371,VALID,48,VALID,0,
2015-06-17, 08:12:04,VALID,916.513,VALID,0,VALID,85.5119,VALID,229.494,VALID,22.255,VALID,51,VALID,0,
2015-06-17, 08:13:04,VALID,916.496,VALID,0,VALID,85.954,VALID,227.453,VALID,22.3542,VALID,48,VALID,0,
2015-06-17, 08:14:04,VALID,916.48,VALID,0,VALID,86.0074,VALID,253.669,VALID,22.4696,VALID,45,VALID,0,
2015-06-17, 08:15:04,VALID,916.516,VALID,0,VALID,85.611,VALID,279.562,VALID,22.686,VALID,42,VALID,0,
2015-06-17, 08:16:04,VALID,916.553,VALID,0,VALID,84.0482,VALID,320.604,VALID,22.8616,VALID,42,VALID,0,
2015-06-17, 08:17:04,VALID,916.564,VALID,0,VALID,82.7293,VALID,277.521,VALID,23.0356,VALID,42,VALID,0,
2015-06-17, 08:18:04,VALID,916.579,VALID,0,VALID,80.2822,VALID,337.795,VALID,23.2112,VALID,42,VALID,0,
2015-06-17, 08:19:04,VALID,916.575,VALID,0,VALID,80.0154,VALID,348.969,VALID,23.3478,VALID,42,VALID,0,
2015-06-17, 08:20:04,VALID,916.551,VALID,0,VALID,78.384,VALID,354.878,VALID,23.4259,VALID,42,VALID,0,
2015-06-17, 08:21:04,VALID,916.511,VALID,0,VALID,79.901,VALID,338.977,VALID,23.504,VALID,42,VALID,0,
2015-06-17, 08:22:04,VALID,916.501,VALID,0,VALID,76.0283,VALID,319.1,VALID,23.6211,VALID,47,VALID,0,
2015-06-17, 08:23:04,VALID,916.471,VALID,0,VALID,75.67,VALID,291.703,VALID,23.6992,VALID,49,VALID,0,
2015-06-17, 08:24:04,VALID,916.459,VALID,0,VALID,76.0817,VALID,358.101,VALID,23.7364,VALID,48,VALID,0,
2015-06-17, 08:25:04,VALID,916.438,VALID,0,VALID,74.9229,VALID,322.323,VALID,23.8749,VALID,49,VALID,0,
2015-06-17, 08:26:04,VALID,916.411,VALID,0,VALID,74.9382,VALID,374.11,VALID,24.0896,VALID,48,VALID,0,
2015-06-17, 08:27:04,VALID,916.397,VALID,0,VALID,70.6767,VALID,315.77,VALID,24.1269,VALID,70,VALID,0,
2015-06-17, 08:28:04,VALID,916.39,VALID,0,VALID,71.9879,VALID,353.159,VALID,23.9707,VALID,78,VALID,0,
2015-06-17, 08:29:04,VALID,916.417,VALID,0,VALID,72.7045,VALID,360.573,VALID,23.9121,VALID,81,VALID,0,
2015-06-17, 08:30:04,VALID,916.443,VALID,0,VALID,73.6879,VALID,341.341,VALID,23.8358,VALID,86,VALID,0,
2015-06-17, 08:31:04,VALID,916.436,VALID,0,VALID,74.9229,VALID,325.439,VALID,23.8944,VALID,85,VALID,0,
2015-06-17, 08:32:04,VALID,916.42,VALID,0,VALID,73.4211,VALID,329.629,VALID,24.1482,VALID,85,VALID,0,
2015-06-17, 08:33:04,VALID,916.406,VALID,0,VALID,71.2713,VALID,357.027,VALID,24.3044,VALID,86,VALID,0,
2015-06-17, 08:34:04,VALID,916.394,VALID,0,VALID,71.5991,VALID,390.763,VALID,24.3416,VALID,86,VALID,0,
2015-06-17, 08:35:04,VALID,916.339,VALID,0,VALID,71.4085,VALID,399.574,VALID,24.4606,VALID,86,VALID,0,
2015-06-17, 08:36:04,VALID,916.336,VALID,0,VALID,70.1888,VALID,397.317,VALID,24.734,VALID,86,VALID,0,
2015-06-17, 08:37:04,VALID,916.35,VALID,0,VALID,69.7466,VALID,400.755,VALID,24.9683,VALID,86,VALID,0,
2015-06-17, 08:38:04,VALID,916.34,VALID,0,VALID,69.8305,VALID,402.152,VALID,25.0464,VALID,86,VALID,0,
2015-06-17, 08:39:04,VALID,916.353,VALID,0,VALID,69.4646,VALID,406.02,VALID,24.773,VALID,86,VALID,0,
2015-06-17, 08:40:04,VALID,916.323,VALID,0,VALID,67.8941,VALID,405.268,VALID,24.6949,VALID,85,VALID,0,
2015-06-17, 08:41:04,VALID,916.288,VALID,0,VALID,68.5803,VALID,402.475,VALID,24.7516,VALID,86,VALID,0,
2015-06-17, 08:42:04,VALID,916.256,VALID,0,VALID,69.2054,VALID,410.103,VALID,24.8511,VALID,85,VALID,0,
2015-06-17, 08:43:04,VALID,916.301,VALID,0,VALID,68.1686,VALID,339.084,VALID,24.9683,VALID,70,VALID,0,
2015-06-17, 08:44:04,VALID,916.27,VALID,0,VALID,68.748,VALID,415.69,VALID,24.8707,VALID,70,VALID,0,
2015-06-17, 08:45:04,VALID,916.327,VALID,0,VALID,69.8457,VALID,413.971,VALID,24.8316,VALID,70,VALID,0,
2015-06-17, 08:46:04,VALID,916.357,VALID,0,VALID,69.6552,VALID,416.012,VALID,24.9078,VALID,70,VALID,0,
2015-06-17, 08:47:04,VALID,916.385,VALID,0,VALID,71.1189,VALID,418.806,VALID,24.9859,VALID,66,VALID,0,
2015-06-17, 08:48:04,VALID,916.39,VALID,0,VALID,71.0274,VALID,419.987,VALID,24.8102,VALID,19,VALID,0,
2015-06-17, 08:49:04,VALID,916.375,VALID,0,VALID,70.9588,VALID,423.318,VALID,24.7516,VALID,16,VALID,0,
2015-06-17, 08:50:04,VALID,916.38,VALID,0,VALID,72.4529,VALID,424.822,VALID,24.654,VALID,16,VALID,0,
2015-06-17, 08:51:04,VALID,916.427,VALID,0,VALID,71.2866,VALID,426.112,VALID,24.4587,VALID,348,VALID,0,
2015-06-17, 08:52:04,VALID,916.445,VALID,0,VALID,74.3436,VALID,427.938,VALID,24.244,VALID,263,VALID,0,
2015-06-17, 08:53:04,VALID,916.427,VALID,0,VALID,74.6561,VALID,428.475,VALID,24.2245,VALID,263,VALID,0,
2015-06-17, 08:54:04,VALID,916.431,VALID,0,VALID,72.148,VALID,431.376,VALID,24.1464,VALID,263,VALID,0,
2015-06-17, 08:55:04,VALID,916.368,VALID,0,VALID,73.1086,VALID,433.74,VALID,24.1073,VALID,278,VALID,0,
2015-06-17, 08:56:04,VALID,916.396,VALID,0,VALID,72.2242,VALID,436.748,VALID,24.0878,VALID,273,VALID,0,
2015-06-17, 08:57:04,VALID,916.393,VALID,0,VALID,71.5305,VALID,438.36,VALID,24.0292,VALID,269,VALID,0,
2015-06-17, 08:58:04,VALID,916.442,VALID,0,VALID,70.1431,VALID,441.261,VALID,24.0488,VALID,269,VALID,0,
2015-06-17, 08:59:04,VALID,916.444,VALID,0,VALID,70.913,VALID,442.98,VALID,24.0683,VALID,271,VALID,0,
2015-06-17, 09:00:04,VALID,916.462,VALID,0,VALID,71.9346,VALID,445.021,VALID,24.0665,VALID,272,VALID,0,
2015-06-17, 09:01:04,VALID,916.457,VALID,0,VALID,72.9637,VALID,448.352,VALID,24.1073,VALID,272,VALID,0,
2015-06-17, 09:02:04,VALID,916.454,VALID,0,VALID,72.918,VALID,451.038,VALID,24.1854,VALID,271,VALID,0,
2015-06-17, 09:03:04,VALID,916.415,VALID,0,VALID,70.4556,VALID,453.831,VALID,24.3416,VALID,306,VALID,0,
2015-06-17, 09:04:04,VALID,916.426,VALID,0,VALID,69.8,VALID,457.377,VALID,24.4002,VALID,306,VALID,0,
2015-06-17, 09:05:04,VALID,916.424,VALID,0,VALID,69.1596,VALID,460.063,VALID,24.3611,VALID,305,VALID,0,
2015-06-17, 09:06:04,VALID,916.428,VALID,0,VALID,68.1838,VALID,461.782,VALID,24.3221,VALID,289,VALID,0,
2015-06-17, 09:07:04,VALID,916.426,VALID,0,VALID,69.5713,VALID,464.79,VALID,24.4002,VALID,306,VALID,0,
2015-06-17, 09:08:04,VALID,916.432,VALID,0,VALID,67.9018,VALID,467.584,VALID,24.6326,VALID,306,VALID,0,
2015-06-17, 09:09:04,VALID,916.396,VALID,0,VALID,66.6287,VALID,469.733,VALID,24.8864,VALID,306,VALID,0,
2015-06-17, 09:10:04,VALID,916.42,VALID,0,VALID,66.5295,VALID,472.204,VALID,25.064,VALID,306,VALID,0,
2015-06-17, 09:11:04,VALID,916.416,VALID,0,VALID,64.9896,VALID,474.353,VALID,25.1422,VALID,304,VALID,0,
2015-06-17, 09:12:04,VALID,916.472,VALID,0,VALID,65.447,VALID,476.609,VALID,24.9274,VALID,304,VALID,0,
2015-06-17, 09:13:04,VALID,916.49,VALID,0,VALID,64.7152,VALID,478.435,VALID,24.8102,VALID,306,VALID,0,
2015-06-17, 09:14:04,VALID,916.508,VALID,0,VALID,64.7152,VALID,481.014,VALID,24.693,VALID,306,VALID,0,
2015-06-17, 09:15:04,VALID,916.491,VALID,0,VALID,62.9694,VALID,483.915,VALID,24.6559,VALID,306,VALID,0,
2015-06-17, 09:16:04,VALID,916.474,VALID,0,VALID,65.5309,VALID,488.213,VALID,24.4978,VALID,304,VALID,0,
2015-06-17, 09:17:04,VALID,916.477,VALID,0,VALID,67.2919,VALID,492.833,VALID,24.4411,VALID,284,VALID,0,
2015-06-17, 09:18:04,VALID,916.496,VALID,0,VALID,67.4062,VALID,497.56,VALID,24.4978,VALID,284,VALID,0,
2015-06-17, 09:19:04,VALID,916.489,VALID,0,VALID,68.7556,VALID,501.75,VALID,24.6735,VALID,285,VALID,0,
2015-06-17, 09:20:04,VALID,916.459,VALID,0,VALID,65.386,VALID,504.866,VALID,24.7711,VALID,297,VALID,0,
2015-06-17, 09:21:04,VALID,916.476,VALID,0,VALID,65.1421,VALID,503.684,VALID,24.7907,VALID,305,VALID,0,
2015-06-17, 09:22:04,VALID,916.438,VALID,0,VALID,64.6923,VALID,502.502,VALID,24.9274,VALID,284,VALID,0,
2015-06-17, 09:23:04,VALID,916.43,VALID,0,VALID,66.8269,VALID,504.329,VALID,24.8492,VALID,272,VALID,0,
2015-06-17, 09:24:04,VALID,916.452,VALID,0,VALID,66.3008,VALID,507.015,VALID,24.8297,VALID,272,VALID,0,
2015-06-17, 09:25:04,VALID,916.414,VALID,0,VALID,66.9641,VALID,510.883,VALID,24.9469,VALID,271,VALID,0,
2015-06-17, 09:26:04,VALID,916.422,VALID,0,VALID,66.6744,VALID,512.065,VALID,25.0836,VALID,270,VALID,0,
2015-06-17, 09:27:04,VALID,916.374,VALID,0,VALID,65.9121,VALID,514.858,VALID,25.064,VALID,264,VALID,0,
2015-06-17, 09:28:04,VALID,916.393,VALID,0,VALID,65.9349,VALID,518.511,VALID,25.064,VALID,302,VALID,0,
2015-06-17, 09:29:04,VALID,916.371,VALID,0,VALID,65.9807,VALID,522.057,VALID,24.9859,VALID,258,VALID,0,
2015-06-17, 09:30:04,VALID,916.389,VALID,0,VALID,68.2143,VALID,524.957,VALID,24.7516,VALID,258,VALID,0,
2015-06-17, 09:31:04,VALID,916.37,VALID,0,VALID,67.4367,VALID,526.677,VALID,24.6735,VALID,258,VALID,0,
2015-06-17, 09:32:04,VALID,916.34,VALID,0,VALID,67.6273,VALID,529.577,VALID,24.5954,VALID,258,VALID,0,
2015-06-17, 09:33:04,VALID,916.363,VALID,0,VALID,68.3668,VALID,531.726,VALID,24.574,VALID,258,VALID,0,
2015-06-17, 09:34:04,VALID,916.344,VALID,0,VALID,67.8941,VALID,534.627,VALID,24.5564,VALID,258,VALID,0,
2015-06-17, 09:35:04,VALID,916.341,VALID,0,VALID,68.2219,VALID,533.983,VALID,24.7126,VALID,258,VALID,0,
2015-06-17, 09:36:04,VALID,916.347,VALID,0,VALID,69.0605,VALID,539.784,VALID,24.945,VALID,258,VALID,0,
2015-06-17, 09:37:04,VALID,916.362,VALID,0,VALID,66.3695,VALID,542.363,VALID,25.1812,VALID,292,VALID,0,
2015-06-17, 09:38:04,VALID,916.398,VALID,0,VALID,66.7659,VALID,544.404,VALID,25.1793,VALID,292,VALID,0,
2015-06-17, 09:39:04,VALID,916.422,VALID,0,VALID,66.9412,VALID,547.52,VALID,25.1598,VALID,271,VALID,0,
2015-06-17, 09:40:04,VALID,916.453,VALID,0,VALID,66.5905,VALID,550.314,VALID,25.2007,VALID,271,VALID,0,
2015-06-17, 09:41:04,VALID,916.407,VALID,0,VALID,66.3695,VALID,552.14,VALID,25.0817,VALID,270,VALID,0,
2015-06-17, 09:42:04,VALID,916.41,VALID,0,VALID,66.9107,VALID,554.611,VALID,24.945,VALID,254,VALID,0,
2015-06-17, 09:43:04,VALID,916.414,VALID,0,VALID,68.8852,VALID,558.694,VALID,25.0426,VALID,258,VALID,0,
2015-06-17, 09:44:04,VALID,916.411,VALID,0,VALID,66.7583,VALID,560.306,VALID,25.316,VALID,4,VALID,0,
2015-06-17, 09:45:04,VALID,916.397,VALID,0,VALID,66.1331,VALID,562.454,VALID,25.5113,VALID,4,VALID,0,
2015-06-17, 09:46:04,VALID,916.409,VALID,0,VALID,66.8345,VALID,566,VALID,25.687,VALID,8,VALID,0,
2015-06-17, 09:47:04,VALID,916.417,VALID,0,VALID,63.8537,VALID,568.041,VALID,25.8823,VALID,35,VALID,0,
2015-06-17, 09:48:04,VALID,916.41,VALID,0,VALID,63.9223,VALID,374.647,VALID,25.9019,VALID,35,VALID,0,
2015-06-17, 09:49:04,VALID,916.378,VALID,0,VALID,65.4623,VALID,578.571,VALID,25.7456,VALID,48,VALID,0,
2015-06-17, 09:50:04,VALID,916.378,VALID,0,VALID,66.7583,VALID,576.314,VALID,25.5698,VALID,73,VALID,0,
2015-06-17, 09:51:04,VALID,916.355,VALID,0,VALID,68.1991,VALID,579.108,VALID,25.5308,VALID,73,VALID,0,
2015-06-17, 09:52:04,VALID,916.366,VALID,0,VALID,67.3681,VALID,582.224,VALID,25.648,VALID,73,VALID,0,
2015-06-17, 09:53:04,VALID,916.386,VALID,0,VALID,66.5524,VALID,585.232,VALID,25.7651,VALID,60,VALID,0,
2015-06-17, 09:54:04,VALID,916.391,VALID,0,VALID,65.6529,VALID,589.1,VALID,25.9409,VALID,56,VALID,0,
2015-06-17, 09:55:04,VALID,916.382,VALID,0,VALID,64.9591,VALID,591.034,VALID,26.0776,VALID,30,VALID,0,
2015-06-17, 09:56:04,VALID,916.387,VALID,0,VALID,64.151,VALID,593.397,VALID,26.0366,VALID,305,VALID,0,
2015-06-17, 09:57:04,VALID,916.353,VALID,0,VALID,64.2044,VALID,596.836,VALID,25.8413,VALID,305,VALID,0,
2015-06-17, 09:58:04,VALID,916.363,VALID,0,VALID,64.9134,VALID,598.662,VALID,25.7651,VALID,305,VALID,0,
2015-06-17, 09:59:04,VALID,916.335,VALID,0,VALID,65.7138,VALID,601.993,VALID,25.7847,VALID,305,VALID,0,
2015-06-17, 10:00:04,VALID,916.309,VALID,0,VALID,65.3022,VALID,604.034,VALID,25.9214,VALID,305,VALID,0,
2015-06-17, 10:01:04,VALID,916.296,VALID,0,VALID,64.7304,VALID,605.753,VALID,26.0581,VALID,305,VALID,0,
2015-06-17, 10:02:04,VALID,916.28,VALID,0,VALID,64.9668,VALID,610.481,VALID,25.9995,VALID,307,VALID,0,
2015-06-17, 10:03:04,VALID,916.237,VALID,0,VALID,66.621,VALID,609.299,VALID,25.8823,VALID,329,VALID,0,
2015-06-17, 10:04:04,VALID,916.263,VALID,0,VALID,66.8802,VALID,609.514,VALID,25.98,VALID,325,VALID,0,
2015-06-17, 10:05:04,VALID,916.268,VALID,0,VALID,64.7838,VALID,610.588,VALID,25.9214,VALID,325,VALID,0,
2015-06-17, 10:06:04,VALID,916.247,VALID,0,VALID,65.5233,VALID,613.059,VALID,25.8608,VALID,325,VALID,0,
2015-06-17, 10:07:04,VALID,916.263,VALID,0,VALID,65.2641,VALID,619.721,VALID,25.9214,VALID,325,VALID,0,
2015-06-17, 10:08:04,VALID,916.26,VALID,0,VALID,64.8448,VALID,644.969,VALID,26.0581,VALID,326,VALID,0,
2015-06-17, 10:09:04,VALID,916.278,VALID,0,VALID,66.9031,VALID,512.279,VALID,26.1167,VALID,11,VALID,1.42617,
2015-06-17, 10:10:04,VALID,916.237,VALID,0,VALID,66.8497,VALID,643.895,VALID,26.1928,VALID,16,VALID,1.10391,
2015-06-17, 10:11:04,VALID,916.264,VALID,0,VALID,62.7712,VALID,629.068,VALID,26.3491,VALID,11,VALID,0,
2015-06-17, 10:12:04,VALID,916.219,VALID,0,VALID,63.9986,VALID,625.093,VALID,26.3511,VALID,9,VALID,0,
2015-06-17, 10:13:04,VALID,916.232,VALID,0,VALID,64.4865,VALID,626.704,VALID,26.3511,VALID,15,VALID,0,
2015-06-17, 10:14:04,VALID,916.223,VALID,0,VALID,65.4242,VALID,627.671,VALID,26.4663,VALID,6,VALID,0,
2015-06-17, 10:15:04,VALID,916.263,VALID,0,VALID,63.8766,VALID,452.435,VALID,26.5249,VALID,336,VALID,0,
2015-06-17, 10:16:04,VALID,916.268,VALID,0,VALID,65.2336,VALID,646.581,VALID,26.3511,VALID,289,VALID,0,
2015-06-17, 10:17:04,VALID,916.246,VALID,0,VALID,66.2399,VALID,638.953,VALID,26.1538,VALID,305,VALID,0,
2015-06-17, 10:18:04,VALID,916.268,VALID,0,VALID,67.5206,VALID,641.101,VALID,26.2534,VALID,305,VALID,0,
2015-06-17, 10:19:04,VALID,916.214,VALID,0,VALID,66.6134,VALID,645.614,VALID,26.5444,VALID,305,VALID,0,
2015-06-17, 10:20:04,VALID,916.174,VALID,0,VALID,66.2094,VALID,648.085,VALID,26.5444,VALID,305,VALID,0,
2015-06-17, 10:21:04,VALID,916.178,VALID,0,VALID,63.1143,VALID,650.126,VALID,26.4077,VALID,305,VALID,0,
2015-06-17, 10:22:04,VALID,916.166,VALID,0,VALID,63.8918,VALID,651.845,VALID,26.1928,VALID,287,VALID,0,
2015-06-17, 10:23:04,VALID,916.15,VALID,0,VALID,67.1242,VALID,654.209,VALID,26.1753,VALID,308,VALID,0,
2015-06-17, 10:24:04,VALID,916.127,VALID,0,VALID,65.4775,VALID,657.97,VALID,26.4272,VALID,309,VALID,0,
2015-06-17, 10:25:04,VALID,916.156,VALID,0,VALID,64.6085,VALID,658.722,VALID,26.7027,VALID,302,VALID,0,
2015-06-17, 10:26:04,VALID,916.164,VALID,0,VALID,63.7318,VALID,660.763,VALID,26.896,VALID,315,VALID,0,
2015-06-17, 10:27:04,VALID,916.179,VALID,0,VALID,60.7586,VALID,663.449,VALID,26.9567,VALID,318,VALID,0.428906,
2015-06-17, 10:28:04,VALID,916.119,VALID,0,VALID,61.3761,VALID,669.788,VALID,26.7788,VALID,313,VALID,0,
2015-06-17, 10:29:04,VALID,916.108,VALID,0,VALID,62.1918,VALID,673.226,VALID,26.6636,VALID,1,VALID,1.80703,
2015-06-17, 10:30:04,VALID,916.105,VALID,0,VALID,64.86,VALID,675.375,VALID,26.4858,VALID,14,VALID,0,
2015-06-17, 10:31:04,VALID,916.075,VALID,0,VALID,64.921,VALID,684.615,VALID,26.566,VALID,325,VALID,0,
2015-06-17, 10:32:04,VALID,916.068,VALID,0,VALID,64.8905,VALID,684.615,VALID,26.7418,VALID,323,VALID,0,
2015-06-17, 10:33:04,VALID,916.086,VALID,0,VALID,63.0685,VALID,690.095,VALID,26.9176,VALID,263,VALID,0,
2015-06-17, 10:34:04,VALID,916.07,VALID,0,VALID,65.2183,VALID,691.384,VALID,27.1521,VALID,10,VALID,0,
2015-06-17, 10:35:04,VALID,916.103,VALID,0,VALID,63.4421,VALID,692.458,VALID,27.4061,VALID,244,VALID,0,
2015-06-17, 10:36:04,VALID,916.078,VALID,0,VALID,62.573,VALID,697.615,VALID,27.4235,VALID,31,VALID,0,
2015-06-17, 10:37:04,VALID,916.092,VALID,0,VALID,63.2134,VALID,706.211,VALID,27.4821,VALID,346,VALID,0,
2015-06-17, 10:38:04,VALID,916.113,VALID,0,VALID,60.9568,VALID,704.707,VALID,27.5603,VALID,339,VALID,0,
2015-06-17, 10:39:04,VALID,916.098,VALID,0,VALID,61.2999,VALID,711.046,VALID,27.4431,VALID,304,VALID,0,
2015-06-17, 10:40:04,VALID,916.11,VALID,0,VALID,60.6671,VALID,706.64,VALID,27.3454,VALID,273,VALID,0.252344,
2015-06-17, 10:41:04,VALID,916.146,VALID,0,VALID,61.4828,VALID,706.211,VALID,27.0328,VALID,292,VALID,0,
2015-06-17, 10:42:04,VALID,916.135,VALID,0,VALID,63.3277,VALID,705.781,VALID,26.857,VALID,12,VALID,0.442969,
2015-06-17, 10:43:04,VALID,916.155,VALID,0,VALID,61.925,VALID,705.136,VALID,26.8765,VALID,23,VALID,0.115234,
2015-06-17, 10:44:04,VALID,916.178,VALID,0,VALID,63.9376,VALID,705.888,VALID,26.9351,VALID,14,VALID,0.0078125,
2015-06-17, 10:45:04,VALID,916.171,VALID,0,VALID,62.9389,VALID,706.426,VALID,27.0914,VALID,46,VALID,0,
2015-06-17, 10:46:04,VALID,916.201,VALID,0,VALID,61.986,VALID,706.748,VALID,27.2868,VALID,21,VALID,0.0964844,
2015-06-17, 10:47:04,VALID,916.208,VALID,0,VALID,61.399,VALID,705.566,VALID,27.4235,VALID,11,VALID,0,
2015-06-17, 10:48:04,VALID,916.224,VALID,0,VALID,62.0012,VALID,739.303,VALID,27.404,VALID,301,VALID,0,
2015-06-17, 10:49:04,VALID,916.204,VALID,0,VALID,61.8945,VALID,739.84,VALID,27.3258,VALID,250,VALID,0,
2015-06-17, 10:50:04,VALID,916.242,VALID,0,VALID,60.812,VALID,725.443,VALID,27.3258,VALID,281,VALID,0,
2015-06-17, 10:51:04,VALID,916.244,VALID,0,VALID,60.347,VALID,743.17,VALID,27.1305,VALID,245,VALID,0,
2015-06-17, 10:52:04,VALID,916.205,VALID,0,VALID,61.0254,VALID,565.57,VALID,27.1695,VALID,312,VALID,0,
2015-06-17, 10:53:04,VALID,916.178,VALID,0,VALID,62.5349,VALID,762.402,VALID,27.0523,VALID,34,VALID,0,
2015-06-17, 10:54:04,VALID,916.191,VALID,0,VALID,61.6506,VALID,754.129,VALID,27.1891,VALID,18,VALID,0.166797,
2015-06-17, 10:55:04,VALID,916.196,VALID,0,VALID,63.625,VALID,763.584,VALID,27.1911,VALID,17,VALID,0.0960938,
2015-06-17, 10:56:04,VALID,916.162,VALID,0,VALID,61.5133,VALID,775.188,VALID,27.2477,VALID,357,VALID,0,
2015-06-17, 10:57:04,VALID,916.201,VALID,0,VALID,63.6327,VALID,813.974,VALID,27.3649,VALID,10,VALID,0,
2015-06-17, 10:58:04,VALID,916.176,VALID,0,VALID,63.564,VALID,816.875,VALID,27.5408,VALID,329,VALID,0,
2015-06-17, 10:59:04,VALID,916.164,VALID,0,VALID,58.4487,VALID,233.792,VALID,27.7948,VALID,307,VALID,0,